Wind_Speed
31 34 34 34 35 35 35 34 33 32 32 32 33 34 35 35 35 34 33 33 34 34 34 32 33 33 33 33 33 33 33 33 32 32 32 33 32 32 33 33 33 33 33
30 31 32 33 33 34 34 34 33 32 32 32 33 35 35 35 36 35 35 35 34 34 36 35 34 33 33 33 32 32 32 32 31 31 32 33 34 34 34 35 35 35 36
28 28 29 30 32 32 31 31 32 32 32 33 33 34 35 35 36 36 35 34 34 35 36 38 35 34 35 34 33 32 32 32 33 33 33 34 35 35 36 36 37 38 38
27 28 28 28 30 31 31 31 31 32 32 33 34 34 34 35 35 35 35 34 35 36 37 38 37 35 35 35 34 35 35 35 35 36 36 36 36 37 37 38 39 40 41
24 24 26 26 27 28 29 29 30 31 31 32 32 33 34 34 35 35 36 36 36 36 36 37 39 37 36 36 36 36 36 37 37 38 38 39 39 40 40 40 41 42 43
22 22 23 24 25 27 28 28 29 29 29 30 31 32 33 34 34 35 36 37 37 37 37 38 39 39 39 38 37 37 37 38 39 40 40 40 41 41 42 42 42 43 44
20 20 21 22 24 25 26 28 29 30 31 32 32 33 33 33 34 34 35 36 37 37 38 39 39 39 40 40 40 39 40 41 41 41 41 42 42 43 44 44 45 45 45
21 21 21 22 23 25 26 28 29 30 32 32 33 33 33 33 34 35 35 36 37 37 38 38 38 38 39 40 40 41 42 42 42 42 43 43 45 45 46 46 47 47 48
21 23 24 24 25 26 27 29 30 31 32 32 32 33 33 34 35 35 36 36 37 38 39 39 39 39 39 40 41 42 42 43 43 44 45 46 47 47 48 49 49 50 50
21 23 24 26 26 27 28 30 31 31 32 32 33 34 35 35 36 36 36 37 37 38 38 39 40 41 41 41 42 43 43 44 45 46 47 48 48 49 50 51 51 52 52
21 23 25 26 27 29 29 30 31 32 32 33 34 35 36 36 37 37 37 38 38 38 39 39 40 41 41 42 43 44 45 45 46 47 48 49 49 50 51 52 52 53 53
22 24 26 27 28 29 30 31 31 32 33 34 35 35 36 37 38 38 38 39 39 40 40 41 41 42 43 43 44 45 46 46 47 48 48 49 50 50 51 52 52 53 53
23 25 27 28 29 30 31 32 32 33 35 36 36 37 38 38 38 38 39 40 40 41 42 42 43 43 44 44 45 46 47 48 49 49 49 49 49 50 50 51 51 52 52
25 27 28 30 31 32 33 34 35 36 37 37 38 38 38 38 39 39 39 40 41 42 42 43 43 44 44 44 45 46 47 48 49 49 49 49 49 50 50 50 51 51 51
28 29 30 32 33 34 35 36 37 38 38 39 39 39 39 40 40 40 41 41 42 42 43 43 43 44 44 44 45 45 46 47 48 48 49 49 50 51 50 50 50 51 51
30 31 33 34 35 36 37 38 39 39 39 40 40 40 41 41 41 42 42 42 43 43 43 44 44 44 45 46 46 46 46 46 47 47 48 49 50 50 50 50 51 50 50
33 34 35 36 37 38 39 39 40 40 41 41 41 41 42 42 42 43 43 44 44 44 44 45 45 45 46 46 47 47 46 46 46 47 48 49 49 49 50 50 50 50 50
35 36 37 38 39 39 39 40 41 41 41 42 42 42 42 42 43 43 44 44 44 45 45 45 45 46 46 47 47 47 47 47 47 48 48 49 49 49 49 50 50 50 50
37 37 38 39 39 40 41 42 42 42 42 42 43 43 43 43 43 43 44 44 45 45 46 46 46 46 47 47 48 48 48 48 48 49 49 50 50 50 51 51 50 50 50
38 39 40 41 41 42 43 43 43 44 44 44 44 44 44 44 44 44 44 45 45 45 46 46 46 47 47 48 49 49 49 49 50 50 50 50 51 51 51 51 51 51 51
41 41 42 42 43 43 44 44 45 45 45 45 45 45 45 45 45 45 45 46 46 46 47 47 47 48 49 49 49 49 49 50 50 51 51 51 51 51 51 51 51 51 51
42 43 43 43 44 45 46 46 46 46 45 45 45 45 45 46 46 46 46 46 47 47 47 48 48 48 49 49 49 50 50 50 50 50 51 51 51 51 51 51 51 51 50
44 45 45 45 45 46 47 47 46 47 46 46 46 46 46 46 46 46 47 47 48 48 48 47 48 48 48 49 50 50 50 50 50 51 51 51 51 51 51 51 50 50 49
46 46 46 47 47 47 47 47 47 47 47 47 47 47 47 47 47 47 47 47 47 47 47 48 48 48 48 49 50 49 49 50 50 51 51 51 51 50 50 49 49 48 48
47 47 48 48 48 48 48 48 48 48 48 48 47 47 47 47 47 46 46 47 47 47 47 48 48 49 49 49 49 49 49 50 50 50 50 49 49 49 48 48 47 47 46
47 47 48 48 49 48 48 47 48 48 48 47 47 47 47 46 46 46 46 46 47 47 47 48 48 49 49 49 49 49 50 50 50 50 49 49 48 48 47 46 46 45 44
Wind_Direction
207 211 215 217 220 223 228 232 235 237 239 241 240 242 244 247 251 254 257 259 259 259 261 265 267 270 271 272 274 276 278 280 281 281 281 281 280 282 284 284 284 285 285
210 213 216 219 222 225 231 234 237 238 240 244 245 248 249 251 254 256 259 262 261 261 261 265 268 271 272 272 275 277 278 278 280 281 281 280 281 282 284 284 285 285 285
212 217 219 221 224 227 233 235 238 239 242 245 248 251 250 253 256 257 260 262 263 264 267 268 269 269 271 273 274 277 277 278 280 281 281 281 281 281 283 284 285 285 285
213 219 223 226 228 232 236 239 241 242 245 248 250 252 254 255 256 258 260 262 266 269 270 270 269 270 271 273 275 275 277 278 279 281 282 282 283 282 282 283 284 285 285
217 221 225 230 233 235 238 241 243 246 249 252 254 255 257 258 259 261 262 265 268 269 270 269 269 271 272 274 276 278 278 279 280 281 282 283 282 282 283 283 284 285 285
221 226 232 236 239 241 245 246 248 252 255 257 258 260 262 264 264 264 266 268 269 270 270 270 273 274 275 276 277 278 280 280 281 281 281 282 283 283 283 284 284 285 285
226 233 239 242 246 248 252 253 256 258 261 262 264 265 266 267 267 267 269 270 271 272 274 275 277 276 277 277 277 278 280 280 281 281 281 282 283 283 283 284 284 285 285
232 239 244 248 252 255 257 258 259 261 263 265 266 267 268 269 270 270 270 270 271 272 274 276 276 277 277 278 278 279 280 281 281 283 283 283 283 284 284 284 284 284 285
241 244 247 250 254 257 260 262 262 264 264 264 265 267 268 269 270 270 270 271 271 272 273 275 276 277 279 279 279 281 281 281 282 283 284 285 285 285 286 286 286 286 285
249 250 252 253 256 260 263 265 264 264 264 265 266 267 268 270 270 270 270 271 271 271 273 275 277 278 279 281 281 282 282 282 283 284 284 285 285 286 286 287 287 287 287
254 256 258 260 261 263 264 266 266 266 266 267 267 268 269 270 270 270 271 271 271 272 273 275 277 278 279 280 281 283 283 283 284 285 285 285 286 286 286 287 287 287 288
259 260 262 263 264 264 266 267 268 269 269 269 269 270 271 271 271 271 271 271 272 273 274 276 277 279 281 282 282 283 284 285 285 285 287 287 287 286 286 287 287 287 288
266 264 264 265 266 267 267 268 269 270 271 270 271 272 272 272 272 271 271 272 273 274 276 278 279 280 281 282 283 284 285 285 286 286 287 288 288 287 288 288 289 289 289
271 269 268 269 270 270 270 271 272 272 273 273 272 273 272 272 272 272 272 273 274 276 278 280 281 281 282 283 284 285 285 286 287 287 288 288 288 288 288 289 289 289 289
274 273 271 272 272 273 273 273 274 274 274 274 274 274 273 273 273 273 274 275 276 277 279 280 281 282 283 284 285 285 286 287 287 288 288 288 289 289 289 289 289 289 289
276 276 275 275 275 275 275 275 276 276 275 275 275 275 275 274 274 274 275 276 277 278 279 280 281 282 283 284 285 286 287 287 288 288 289 289 289 289 290 290 289 290 290
278 278 278 278 278 278 277 277 277 277 277 276 276 276 276 276 276 276 276 277 277 278 279 281 282 283 283 284 285 286 287 287 288 289 289 289 289 290 290 290 290 290 291
280 281 281 280 279 279 279 278 277 277 278 277 277 277 277 277 277 277 277 277 278 279 280 281 282 283 284 285 285 286 287 288 289 289 289 289 289 289 289 290 290 291 291
281 281 281 281 280 279 279 279 278 277 278 278 278 277 277 277 278 277 277 278 279 280 281 282 283 284 284 285 286 287 288 288 288 289 289 289 289 289 289 289 289 290 290
280 280 280 280 280 279 279 279 278 277 277 277 277 277 277 277 277 278 278 279 280 281 282 283 284 285 285 286 287 287 288 288 288 288 288 288 288 288 289 289 288 289 289
279 280 280 280 279 279 279 279 279 278 277 277 277 277 277 277 277 278 278 279 280 281 282 283 284 285 285 286 287 287 288 288 288 288 288 288 288 288 288 289 288 289 289
279 280 280 280 279 279 280 280 279 278 277 277 277 277 277 277 278 278 279 279 280 281 282 282 283 284 285 286 286 287 288 288 288 288 288 288 287 287 288 288 289 289 289
279 280 280 280 280 280 281 280 279 278 278 278 278 278 277 278 278 279 279 279 280 281 282 282 283 284 285 286 287 288 288 288 288 288 289 288 288 287 288 288 288 288 288
280 279 279 280 280 280 280 280 279 278 277 278 278 278 277 278 278 279 279 280 280 281 282 282 283 284 285 287 287 288 288 288 288 288 289 289 289 288 288 289 288 288 288
279 279 280 280 281 280 280 279 279 278 277 278 278 278 278 278 278 278 279 280 280 281 282 283 284 285 285 287 288 288 288 288 288 288 289 289 290 289 289 289 289 289 288
280 280 281 281 281 281 281 280 279 278 278 278 278 278 278 278 278 278 279 280 281 282 283 284 285 285 286 287 288 288 288 289 289 289 289 289 289 289 289 289 289 288 288
Height
5731 5737 5743 5748 5753 5758 5761 5764 5767 5770 5773 5775 5777 5780 5782 5784 5785 5787 5788 5789 5790 5791 5792 5792 5793 5793 5793 5793 5793 5793 5792 5791 5791 5790 5789 5788 5787 5786 5785 5784 5783 5781 5780
5730 5735 5740 5745 5749 5753 5757 5760 5762 5765 5768 5770 5772 5774 5776 5777 5779 5780 5781 5782 5783 5784 5784 5785 5786 5786 5786 5786 5785 5785 5785 5784 5783 5782 5782 5781 5781 5779 5778 5776 5775 5774 5772
5728 5733 5738 5742 5746 5749 5752 5755 5758 5760 5762 5764 5766 5768 5770 5771 5773 5774 5775 5775 5776 5776 5777 5778 5778 5778 5778 5778 5778 5777 5777 5776 5776 5775 5774 5773 5772 5772 5770 5768 5767 5765 5764
5726 5731 5735 5739 5742 5746 5748 5750 5753 5755 5757 5759 5760 5762 5763 5765 5766 5767 5768 5769 5769 5769 5769 5770 5770 5770 5770 5770 5769 5769 5769 5768 5767 5766 5765 5764 5763 5762 5761 5760 5758 5756 5754
5724 5728 5732 5735 5738 5741 5744 5746 5748 5750 5751 5753 5754 5755 5756 5758 5759 5760 5760 5761 5761 5761 5761 5761 5762 5762 5761 5761 5760 5760 5760 5759 5758 5757 5756 5754 5753 5752 5751 5750 5749 5747 5744
5722 5725 5729 5731 5734 5737 5739 5741 5742 5744 5745 5746 5747 5749 5750 5750 5751 5752 5752 5753 5753 5753 5753 5753 5753 5752 5752 5752 5751 5751 5750 5750 5749 5748 5746 5745 5743 5742 5741 5739 5738 5736 5734
5719 5722 5725 5728 5730 5732 5734 5735 5737 5738 5739 5740 5741 5742 5742 5743 5744 5744 5744 5745 5745 5745 5744 5744 5744 5743 5743 5743 5742 5742 5741 5740 5739 5738 5736 5734 5733 5731 5730 5728 5727 5725 5723
5716 5718 5721 5723 5725 5727 5728 5730 5731 5731 5732 5733 5734 5734 5735 5735 5736 5736 5736 5736 5736 5736 5735 5735 5735 5734 5734 5733 5732 5731 5731 5730 5729 5727 5725 5724 5722 5720 5718 5717 5715 5713 5711
5712 5714 5717 5718 5720 5721 5722 5723 5724 5725 5725 5726 5726 5727 5727 5727 5728 5727 5727 5727 5727 5727 5726 5726 5725 5725 5724 5723 5722 5721 5720 5719 5718 5716 5714 5713 5711 5709 5706 5704 5702 5701 5699
5709 5710 5712 5713 5714 5715 5716 5716 5717 5717 5718 5718 5718 5719 5718 5718 5718 5718 5718 5717 5717 5717 5716 5716 5715 5715 5714 5713 5712 5710 5709 5708 5706 5704 5703 5701 5699 5696 5694 5691 5689 5686 5685
5705 5706 5707 5708 5708 5709 5709 5709 5710 5710 5710 5710 5710 5710 5709 5709 5709 5708 5708 5707 5707 5706 5706 5706 5705 5704 5703 5702 5700 5699 5697 5696 5694 5692 5690 5688 5686 5684 5681 5679 5676 5673 5670
5700 5701 5701 5702 5702 5703 5703 5702 5702 5702 5702 5701 5701 5700 5700 5699 5699 5698 5698 5697 5697 5696 5696 5695 5694 5693 5691 5690 5689 5687 5686 5684 5682 5680 5678 5675 5673 5670 5668 5665 5662 5659 5656
5694 5695 5695 5695 5695 5695 5695 5695 5694 5694 5693 5692 5692 5691 5690 5690 5689 5688 5688 5687 5687 5686 5685 5683 5682 5681 5679 5678 5677 5675 5674 5672 5670 5667 5665 5662 5660 5657 5654 5651 5648 5645 5642
5687 5687 5688 5688 5688 5687 5687 5686 5685 5685 5684 5683 5682 5681 5680 5679 5678 5678 5677 5676 5676 5675 5673 5672 5670 5669 5667 5666 5664 5663 5661 5659 5657 5654 5652 5649 5646 5643 5640 5637 5634 5631 5628
5680 5680 5680 5679 5679 5678 5678 5677 5676 5675 5674 5673 5672 5670 5669 5668 5668 5667 5666 5665 5664 5663 5662 5660 5658 5657 5655 5654 5652 5650 5648 5646 5644 5641 5638 5635 5632 5629 5626 5624 5621 5618 5615
5672 5672 5671 5670 5670 5669 5668 5667 5665 5664 5663 5662 5661 5659 5658 5657 5656 5655 5654 5653 5652 5651 5650 5648 5647 5645 5643 5641 5639 5637 5635 5633 5630 5628 5625 5622 5619 5616 5613 5610 5607 5604 5601
5663 5662 5662 5661 5659 5658 5657 5656 5654 5653 5652 5651 5649 5648 5647 5645 5644 5643 5642 5641 5640 5639 5637 5636 5634 5632 5630 5628 5626 5624 5622 5620 5617 5614 5612 5609 5605 5602 5599 5596 5593 5590 5586
5654 5653 5652 5650 5649 5647 5646 5645 5643 5642 5640 5639 5638 5636 5635 5633 5632 5631 5629 5628 5627 5626 5625 5623 5622 5620 5617 5615 5613 5611 5609 5606 5604 5601 5598 5595 5592 5588 5585 5582 5579 5576 5572
5644 5642 5641 5639 5638 5636 5634 5633 5631 5630 5628 5627 5625 5624 5622 5621 5620 5618 5617 5616 5615 5613 5612 5610 5608 5606 5604 5601 5599 5597 5595 5593 5590 5587 5584 5581 5578 5575 5572 5569 5566 5562 5559
5633 5631 5629 5627 5626 5624 5622 5621 5619 5617 5616 5614 5613 5611 5610 5608 5607 5606 5604 5603 5602 5600 5599 5597 5595 5593 5591 5588 5586 5583 5582 5579 5577 5574 5570 5567 5564 5560 5557 5554 5551 5548 5545
5621 5619 5617 5615 5613 5611 5610 5608 5606 5604 5603 5601 5600 5598 5597 5595 5594 5593 5591 5590 5588 5587 5586 5584 5582 5579 5577 5574 5572 5569 5567 5565 5562 5559 5556 5553 5549 5546 5543 5540 5537 5533 5530
5608 5606 5605 5603 5601 5599 5597 5595 5593 5591 5589 5588 5586 5585 5583 5582 5580 5579 5578 5576 5575 5573 5572 5570 5568 5565 5563 5560 5558 5555 5553 5550 5548 5545 5542 5538 5535 5532 5528 5525 5522 5519 5516
5595 5594 5592 5590 5588 5585 5583 5581 5579 5577 5576 5574 5573 5571 5570 5568 5567 5565 5564 5562 5561 5559 5557 5555 5554 5552 5549 5546 5543 5541 5538 5535 5533 5530 5527 5524 5520 5517 5514 5511 5507 5504 5501
5582 5580 5578 5576 5574 5572 5569 5567 5565 5563 5562 5561 5559 5558 5556 5554 5553 5551 5550 5548 5546 5545 5543 5541 5539 5537 5535 5532 5529 5526 5524 5521 5518 5515 5512 5509 5506 5502 5499 5496 5493 5490 5487
5567 5566 5564 5562 5560 5558 5556 5553 5551 5549 5548 5547 5545 5544 5542 5541 5539 5537 5536 5534 5533 5530 5529 5527 5525 5523 5521 5518 5514 5512 5509 5506 5503 5500 5498 5495 5491 5488 5485 5482 5479 5476 5473
5553 5552 5550 5548 5546 5543 5541 5539 5537 5535 5534 5533 5531 5530 5528 5526 5525 5523 5522 5520 5518 5516 5514 5512 5510 5508 5505 5503 5500 5497 5494 5491 5488 5485 5483 5480 5477 5474 5471 5469 5466 5463 5460